[[{"header":{"parameterUnit":"m.s-1","parameterCategory":1,"la1":30.2991,"la2":30.254,"lo1":-89.0895,"lo2":-89.0444,"dy":0.0017,"dx":0.0017,"nx":28,"ny":28,"refTime":"2025-04-14T09:00:00:Z","depth":0,"parameterNumber":2,"parameterNumberName":"U-component_of_WINDS"},"data":[0,0,0,0,0,0,0,0,0,0,0,0,0,0,0,0,0,0,0,0,0,0,0,0,0,0,0,0,0,0,0,0,0,0,0,0,0,0,0,0,0,0,0,0,0,0,0,0,0,0,0,0,0,0,0,0,0,0,5.0418,5.0419,0,5.0541,5.0542,5.0544,5.0496,5.0494,5.0491,5.0488,5.0615,5.0621,5.0627,0,0,0,0,0,0,0,0,0,0,0,0,0,5.0144,5.0149,5.0418,5.0419,5.0421,5.0541,5.0543,5.0544,5.0497,5.0493,5.049,5.0487,5.0613,5.0621,5.0628,0,0,0,0,0,0,0,0,0,0,0,0,0,5.0264,5.0151,5.0418,5.0412,5.0412,5.0541,5.0543,5.0545,5.0498,5.0493,5.0489,5.0485,5.0611,5.062,5.0629,5.077,0,0,5.0657,5.0661,0,0,0,0,0,0,0,0,5.0258,5.0274,5.0411,5.0412,5.0413,5.0499,5.0492,5.062,5.0499,5.0465,5.0488,5.0483,5.058,5.0592,5.0624,5.0776,5.0782,5.0657,5.0663,5.0667,5.0669,0,0,0,0,0,0,0,5.0249,5.0269,5.0467,5.0413,5.0415,5.0404,5.0416,5.0516,5.0545,5.0468,5.0465,5.048,5.058,5.0615,5.0627,5.0784,5.0657,5.0665,5.0671,5.0674,5.1059,5.1063,0,0,0,0,0,0,5.024,5.0262,5.0463,5.047,5.0323,5.0412,5.0426,5.0476,5.0544,5.055,5.0483,5.0477,5.0602,5.0616,5.0631,5.0801,5.0667,5.0675,5.068,5.1054,5.106,5.1065,0,0,0,0,0,0,5.0235,5.0259,5.0458,5.0366,5.039,5.0421,5.0478,5.0481,5.0516,5.0556,5.0561,5.0514,5.0599,5.0618,5.0736,5.0805,5.0679,5.0688,5.1048,5.1056,5.1062,5.1143,0,0,0,0,0,0,5.0227,5.0257,5.031,5.0367,5.0395,5.0561,5.0482,5.0486,5.0531,5.0525,5.0586,5.0592,5.0597,5.0723,5.0745,5.0815,5.0695,5.1042,5.1052,5.106,5.1135,5.1152,5.1168,0,0,0,0,0,5.0217,5.0329,5.0313,5.0338,5.0463,5.0565,5.0581,5.0584,5.0537,5.0592,5.0617,5.059,5.0794,5.0735,5.076,5.0834,5.1038,5.1049,5.106,5.1127,5.1149,5.1167,0,0,0,0,0,0,5.028,5.0336,5.032,5.0453,5.0504,5.0556,5.0625,5.0607,5.0673,5.0664,5.0666,5.068,5.0802,5.083,5.0763,5.0975,5.0909,5.0925,5.0952,5.0973,5.0989,5.098,5.0702,0,0,0,0,0,5.0309,5.0386,5.0431,5.0544,5.0571,5.0594,5.0638,5.0637,5.069,5.0712,5.0746,5.08,5.0876,5.0926,5.0998,5.1139,5.1151,5.1202,5.1218,5.1231,5.1246,5.1322,5.1345,5.11,5.11,5.11,0,0,5.037,5.041,5.0459,5.0558,5.0598,5.0678,5.0613,5.0701,5.0761,5.0725,5.0839,5.0866,5.0926,5.1056,5.1115,5.1083,5.1316,5.1245,5.1255,5.1262,5.1336,5.1359,5.1379,5.1108,5.1106,5.1105,0,0,5.0523,5.0561,5.0659,5.0701,5.0761,5.0776,5.08,5.0855,5.0872,5.0985,5.0961,5.1032,5.1163,5.1207,5.1247,5.1417,5.1394,5.144,5.1526,5.1601,5.162,5.1637,5.1698,5.172,5.1454,5.1454,5.1455,0,5.0591,5.0712,5.0712,5.0803,5.0847,5.0819,5.0919,5.0959,5.104,5.1072,5.1035,5.1199,5.1237,5.1377,5.1419,5.1452,5.1479,5.1433,5.1617,5.1635,5.1651,5.1709,5.1732,5.146,5.1459,5.1458,5.1458,0,5.0793,5.0877,5.0949,5.1028,5.1081,5.1176,5.1191,5.1245,5.1239,5.1257,5.1374,5.1419,5.15,5.1533,5.1528,5.1672,5.1651,5.1616,5.155,5.1679,5.1734,5.1756,5.1467,5.1465,5.1464,5.1462,0,0,5.0989,5.1067,5.1094,5.1129,5.1195,5.126,5.1354,5.1432,5.1478,5.1536,5.1615,5.1726,5.1695,5.174,5.1739,5.1805,5.1937,5.1762,5.1763,5.1793,5.21,5.2125,5.2151,5.1923,5.1927,5.193,5.2095,0,5.1147,5.1311,5.1314,5.1465,5.1543,5.1517,5.1599,5.1648,5.1668,5.1737,5.1759,5.1839,5.179,5.1817,5.1881,5.1907,5.1999,5.1896,5.1997,5.2,5.1982,5.218,5.2207,5.236,5.2116,5.212,5.2122,0,5.1353,5.1417,5.1575,5.1629,5.1662,5.1735,5.1808,5.1874,5.193,5.194,5.199,5.198,5.2077,5.2008,5.2141,5.207,5.2112,5.2131,5.2137,5.2147,5.2069,5.2195,5.2409,5.2432,5.2156,5.2153,5.2151,0,5.1481,5.1606,5.1717,5.1748,5.1814,5.1866,5.1896,5.1947,5.1995,5.2058,5.2089,5.2164,5.2205,5.2263,5.2273,5.2222,5.2407,5.2339,5.2418,5.2418,5.2458,5.2456,5.2683,5.2485,5.2485,5.2485,5.2484,0,5.1657,5.1755,5.1775,5.1843,5.1952,5.1956,5.2064,5.209,5.2136,5.2209,5.2191,5.226,5.227,5.2342,5.2351,5.246,5.2479,5.249,5.2491,5.2491,5.249,5.2519,5.2508,5.2491,5.2489,5.2488,5.2487,0,5.1818,5.1835,5.1954,5.2007,5.2022,5.21,5.2145,5.2211,5.2229,5.2322,5.2344,5.2373,5.2457,5.2473,5.2572,5.2578,5.2708,5.2698,5.2689,5.2688,5.2767,5.2759,5.302,5.3055,5.2835,5.2837,5.2839,0,5.1929,5.2004,5.2064,5.2112,5.2144,5.2221,5.2269,5.2276,5.2327,5.2395,5.2453,5.2535,5.26,5.2735,5.2765,5.2841,5.2834,5.292,5.2845,5.2843,5.2835,5.2831,5.2838,5.2934,5.2937,5.2939,5.294,0,5.2126,5.2131,5.22,5.2273,5.2331,5.2389,5.2444,5.2484,5.2497,5.2556,5.2641,5.2692,5.2793,5.2874,5.295,5.2981,5.2964,5.2963,5.2986,5.2987,5.2979,5.2984,5.2728,5.2957,5.2956,5.2954,5.2953,5.2953,5.2266,5.2331,5.2384,5.2462,5.2504,5.2555,5.2619,5.2645,5.2716,5.2798,5.2798,5.2891,5.2945,5.3045,5.3081,5.3154,5.3127,5.316,5.3168,5.3176,5.3183,5.2967,5.3168,5.3168,5.3167,5.3167,5.3167,0,5.2462,5.2494,5.2566,5.2643,5.2705,5.2682,5.2741,5.2795,5.2877,5.2928,5.2993,5.3091,5.317,5.3206,5.3284,5.3336,5.333,5.3356,5.3352,5.336,5.3203,5.3176,5.336,5.336,5.336,5.336,5.336,5.3359,5.2571,5.268,5.2691,5.282,5.2852,5.2943,5.2979,5.3027,5.3068,5.3178,5.3243,5.3266,5.3311,5.3392,5.3464,5.3473,5.3502,5.3533,5.3537,5.3391,5.3371,5.3352,5.3327,5.3539,5.3539,5.3688,5.3689,5.369]},{"header":{"parameterUnit":"m.s-1","parameterCategory":1,"la1":30.2991,"la2":30.254,"lo1":-89.0895,"lo2":-89.0444,"dy":0.0017,"dx":0.0017,"nx":28,"ny":28,"refTime":"2025-04-14T09:00:00:Z","depth":0,"parameterNumber":3,"parameterNumberName":"V-component_of_WINDS"},"data":[0,0,0,0,0,0,0,0,0,0,0,0,0,0,0,0,0,0,0,0,0,0,0,0,0,0,0,0,0,0,0,0,0,0,0,0,0,0,0,0,0,0,0,0,0,0,0,0,0,0,0,0,0,0,0,0,0,0,-1.9307,-1.9308,0,-1.9334,-1.9335,-1.9335,-1.9329,-1.9329,-1.9328,-1.9328,-1.9354,-1.9355,-1.9357,0,0,0,0,0,0,0,0,0,0,0,0,0,-1.9252,-1.9253,-1.9307,-1.9308,-1.9308,-1.9334,-1.9335,-1.9335,-1.9329,-1.9329,-1.9328,-1.9328,-1.9354,-1.9355,-1.9357,0,0,0,0,0,0,0,0,0,0,0,0,0,-1.9277,-1.9254,-1.9307,-1.9308,-1.9309,-1.9334,-1.9335,-1.9335,-1.933,-1.9329,-1.9328,-1.9327,-1.9353,-1.9355,-1.9357,-1.9382,0,0,-1.9362,-1.9363,0,0,0,0,0,0,0,0,-1.9276,-1.9279,-1.9308,-1.9308,-1.9309,-1.9328,-1.9325,-1.9351,-1.933,-1.9322,-1.9328,-1.9327,-1.9346,-1.9348,-1.9355,-1.9383,-1.9384,-1.9362,-1.9363,-1.9364,-1.9365,0,0,0,0,0,0,0,-1.9274,-1.9278,-1.9318,-1.9308,-1.9309,-1.9308,-1.9311,-1.933,-1.9338,-1.9322,-1.9322,-1.9325,-1.9346,-1.9353,-1.9355,-1.9385,-1.9362,-1.9364,-1.9365,-1.9365,-1.9438,-1.9439,0,0,0,0,0,0,-1.9272,-1.9277,-1.9317,-1.9319,-1.929,-1.931,-1.9313,-1.9322,-1.9337,-1.9339,-1.9326,-1.9325,-1.9351,-1.9353,-1.9356,-1.9388,-1.9364,-1.9366,-1.9367,-1.9437,-1.9438,-1.9439,0,0,0,0,0,0,-1.9271,-1.9276,-1.9316,-1.9298,-1.9303,-1.9311,-1.9322,-1.9323,-1.933,-1.934,-1.9341,-1.9332,-1.935,-1.9354,-1.9376,-1.9389,-1.9366,-1.9368,-1.9436,-1.9438,-1.9439,-1.9451,0,0,0,0,0,0,-1.9269,-1.9275,-1.9284,-1.9298,-1.9304,-1.9335,-1.9323,-1.9324,-1.9334,-1.9333,-1.9346,-1.9347,-1.935,-1.9374,-1.9378,-1.9391,-1.9369,-1.9435,-1.9437,-1.9438,-1.945,-1.9453,-1.9456,0,0,0,0,0,-1.9267,-1.9286,-1.9285,-1.929,-1.9315,-1.9336,-1.9339,-1.9342,-1.9335,-1.9344,-1.9351,-1.9347,-1.9387,-1.9376,-1.9381,-1.9394,-1.9434,-1.9436,-1.9438,-1.9449,-1.9452,-1.9456,0,0,0,0,0,0,-1.9272,-1.9288,-1.9287,-1.931,-1.9322,-1.9335,-1.9347,-1.9346,-1.9359,-1.9358,-1.9361,-1.9364,-1.9387,-1.9393,-1.938,-1.9421,-1.941,-1.9413,-1.9416,-1.942,-1.9423,-1.942,-1.9371,0,0,0,0,0,-1.9277,-1.9292,-1.9305,-1.9324,-1.933,-1.9338,-1.9347,-1.9348,-1.936,-1.9365,-1.9373,-1.9385,-1.9401,-1.9411,-1.9425,-1.9451,-1.9455,-1.9463,-1.9466,-1.9469,-1.9471,-1.9487,-1.9491,-1.9446,-1.9446,-1.9446,0,0,-1.9285,-1.9295,-1.9304,-1.9326,-1.9335,-1.9351,-1.9342,-1.9359,-1.9371,-1.9368,-1.939,-1.9397,-1.941,-1.9435,-1.9446,-1.9441,-1.9485,-1.9471,-1.9473,-1.9474,-1.949,-1.9494,-1.9498,-1.9447,-1.9447,-1.9447,0,0,-1.9308,-1.9317,-1.9335,-1.9345,-1.936,-1.9366,-1.937,-1.9384,-1.9389,-1.9412,-1.941,-1.9425,-1.9451,-1.9462,-1.947,-1.9501,-1.9498,-1.9506,-1.9521,-1.9536,-1.954,-1.9543,-1.9555,-1.9559,-1.9509,-1.9509,-1.9509,0,-1.9316,-1.934,-1.9344,-1.9363,-1.9373,-1.9372,-1.9391,-1.9401,-1.9419,-1.9427,-1.9421,-1.9456,-1.9464,-1.9493,-1.9501,-1.9507,-1.9513,-1.9504,-1.9539,-1.9542,-1.9545,-1.9557,-1.9561,-1.951,-1.9509,-1.9509,-1.9509,0,-1.935,-1.9367,-1.938,-1.94,-1.9411,-1.943,-1.9438,-1.9449,-1.9451,-1.9457,-1.9482,-1.9493,-1.9511,-1.9518,-1.9519,-1.9547,-1.9544,-1.9538,-1.9527,-1.9551,-1.9561,-1.9566,-1.9511,-1.951,-1.951,-1.951,0,0,-1.9374,-1.9398,-1.9403,-1.9413,-1.9431,-1.9444,-1.9464,-1.9483,-1.9493,-1.9507,-1.9523,-1.9548,-1.9544,-1.9554,-1.9556,-1.957,-1.9596,-1.9564,-1.9564,-1.957,-1.9629,-1.9633,-1.9637,-1.9595,-1.9596,-1.9596,-1.9628,0,-1.9399,-1.9433,-1.944,-1.947,-1.9487,-1.9488,-1.9505,-1.9519,-1.9526,-1.9542,-1.955,-1.9567,-1.9561,-1.9567,-1.9581,-1.959,-1.9608,-1.9588,-1.9611,-1.9611,-1.9607,-1.9643,-1.9646,-1.9675,-1.9632,-1.9633,-1.9633,0,-1.9432,-1.9448,-1.948,-1.9499,-1.9506,-1.9521,-1.954,-1.9555,-1.9571,-1.9576,-1.9589,-1.9591,-1.9612,-1.9601,-1.9631,-1.9617,-1.9627,-1.9634,-1.9635,-1.9636,-1.9623,-1.9645,-1.9685,-1.9689,-1.964,-1.9639,-1.9639,0,-1.9447,-1.9477,-1.9501,-1.9509,-1.9531,-1.9542,-1.9551,-1.9567,-1.9579,-1.9595,-1.9603,-1.9622,-1.9632,-1.9647,-1.9655,-1.9646,-1.9685,-1.9674,-1.9689,-1.9689,-1.9696,-1.9696,-1.9738,-1.9704,-1.9704,-1.9704,-1.9703,0,-1.9474,-1.9494,-1.9508,-1.9523,-1.9546,-1.9554,-1.9576,-1.9586,-1.96,-1.9617,-1.962,-1.9635,-1.9644,-1.9662,-1.9668,-1.9693,-1.9697,-1.9702,-1.9703,-1.9701,-1.9701,-1.9707,-1.9705,-1.9705,-1.9704,-1.9704,-1.9704,0,-1.9494,-1.9504,-1.9531,-1.955,-1.9556,-1.9572,-1.9589,-1.9603,-1.9612,-1.9634,-1.9639,-1.9653,-1.9674,-1.9683,-1.9709,-1.9713,-1.9741,-1.9741,-1.9736,-1.9736,-1.9752,-1.975,-1.9799,-1.9806,-1.9768,-1.9768,-1.9768,0,-1.951,-1.9526,-1.9548,-1.956,-1.957,-1.9589,-1.9602,-1.9611,-1.9624,-1.9645,-1.9658,-1.9679,-1.9697,-1.9731,-1.9743,-1.9763,-1.9764,-1.9779,-1.9766,-1.9765,-1.9764,-1.9763,-1.9765,-1.9781,-1.9782,-1.9782,-1.9782,0,-1.9538,-1.9543,-1.9561,-1.9583,-1.9598,-1.9615,-1.9631,-1.9641,-1.9653,-1.9668,-1.969,-1.9704,-1.9732,-1.9753,-1.9775,-1.9785,-1.9786,-1.9787,-1.9791,-1.9789,-1.9786,-1.9789,-1.9742,-1.9785,-1.9785,-1.9785,-1.9784,-1.9784,-1.9557,-1.9572,-1.959,-1.9611,-1.9625,-1.9641,-1.9657,-1.9668,-1.9687,-1.9711,-1.9715,-1.9739,-1.9757,-1.9787,-1.9798,-1.9818,-1.9814,-1.982,-1.9822,-1.9824,-1.9825,-1.9784,-1.9822,-1.9821,-1.9821,-1.9821,-1.9821,0,-1.9585,-1.9598,-1.9617,-1.9641,-1.9658,-1.9659,-1.9678,-1.9692,-1.9714,-1.9731,-1.9749,-1.9776,-1.9798,-1.9813,-1.9835,-1.9848,-1.9849,-1.9854,-1.9852,-1.9855,-1.9827,-1.982,-1.9852,-1.9852,-1.9852,-1.9852,-1.9852,-1.9852,-1.9602,-1.9628,-1.9636,-1.9669,-1.9681,-1.9706,-1.9717,-1.9732,-1.9746,-1.9776,-1.9795,-1.9805,-1.9822,-1.9846,-1.9866,-1.9871,-1.9879,-1.9883,-1.9887,-1.986,-1.9857,-1.9854,-1.9848,-1.9885,-1.9885,-1.9914,-1.9914,-1.9914]}]]